Date String (YYYY-MM-DD hh:mm:ss) UTC,Instrument flags,Ambient pressure (hPa),Sample flow (lpm),Bypass flow (lpm),Sample temperature (°C),Ambient temperature (°C),ASC tube jacket temperature (°C),LED temperature (°C),Box temperature (°C),Sample RH (%),Span deviation,Mass concentration (μg/m³),Mass concentration (μg/m³),Mass concentration (μg/m³)
DateTimeUTC,F1_M11,P_M11,Q1_M11,Q2_M11,T1_M11,T2_M11,T3_M11,T4_M11,T5_M11,U1_M11,ZSPAN_M11,X0_M11,X2_M11,X1_M11
2022-11-04 16:00:00,,0822.4,5.02,0.00,21.5,19.7,00.0,30.5,23.2,15.8,0000.0,0008.44,0006.55,0006.45
2022-11-04 16:01:00,,0822.4,5.00,0.00,21.4,19.7,00.0,30.5,23.2,16.0,0000.0,0008.18,0006.56,0006.46
2022-11-04 16:02:00,,0822.3,5.00,0.00,21.4,19.6,00.0,30.4,23.1,16.1,0000.0,0008.03,0006.56,0006.47
2022-11-04 16:03:00,,0822.2,5.00,0.00,21.4,20.0,00.0,30.4,23.2,16.0,0000.0,0008.04,0006.57,0006.48
2022-11-04 16:04:00,,0822.3,4.99,0.00,21.5,21.5,00.0,30.4,23.5,15.9,0000.0,0008.07,0006.57,0006.48
2022-11-04 16:05:00,,0822.2,4.99,0.00,21.7,22.4,00.0,30.5,23.8,15.8,0000.0,0008.03,0006.54,0006.46
2022-11-04 16:06:00,,0822.3,5.01,0.00,21.8,22.0,00.0,30.5,23.9,15.6,0000.0,0007.98,0006.53,0006.46
2022-11-04 16:07:00,,0822.3,5.00,0.00,21.8,21.5,00.0,30.5,23.8,15.6,0000.0,0007.96,0006.54,0006.46
2022-11-04 16:08:00,,0822.3,4.99,0.00,21.8,21.1,00.0,30.6,23.7,15.5,0000.0,0007.94,0006.53,0006.45
2022-11-04 16:09:00,,0822.3,5.00,0.00,21.8,20.9,00.0,30.6,23.7,15.6,0000.0,0007.94,0006.52,0006.43
2022-11-04 16:10:00,,0822.2,5.01,0.00,21.8,20.8,00.0,30.6,23.7,15.6,0000.0,0007.96,0006.52,0006.42
2022-11-04 16:11:00,,0822.2,4.98,0.00,21.8,20.7,00.0,30.6,23.7,15.4,0000.0,0007.97,0006.52,0006.41
2022-11-04 16:12:00,,0822.2,5.00,0.00,21.8,20.6,00.0,30.6,23.7,15.3,0000.0,0007.92,0006.48,0006.39
2022-11-04 16:13:00,,0822.2,5.01,0.00,21.8,20.5,00.0,30.6,23.7,15.3,0000.0,0007.89,0006.46,0006.36
2022-11-04 16:14:00,,0822.2,4.98,0.00,21.8,20.5,00.0,30.6,23.7,15.5,0000.0,0007.86,0006.42,0006.32
2022-11-04 16:15:00,,0822.2,5.01,0.00,21.8,20.5,00.0,30.6,23.7,15.7,0000.0,0007.76,0006.37,0006.28
2022-11-04 16:16:00,,0822.2,5.01,0.00,21.8,20.5,00.0,30.6,23.7,15.5,0000.0,0007.72,0006.35,0006.26
2022-11-04 16:17:00,,0822.2,4.99,0.00,21.8,20.5,00.0,30.6,23.7,15.4,0000.0,0007.71,0006.33,0006.24
2022-11-04 16:18:00,,0822.2,5.00,0.00,21.9,20.6,00.0,30.6,23.7,15.4,0000.0,0007.66,0006.29,0006.22
2022-11-04 16:19:00,,0822.2,5.01,0.00,21.9,20.7,00.0,30.6,23.8,15.5,0000.0,0007.65,0006.27,0006.19
2022-11-04 16:20:00,,0822.2,4.99,0.00,21.9,20.8,00.0,30.7,23.8,15.6,0000.0,0007.62,0006.24,0006.16
2022-11-04 16:21:00,,0822.2,4.99,0.00,21.9,20.8,00.0,30.7,23.8,15.6,0000.0,0007.58,0006.22,0006.14
2022-11-04 16:22:00,,0822.2,5.01,0.00,21.9,20.9,00.0,30.7,23.8,15.5,0000.0,0007.59,0006.22,0006.13
2022-11-04 16:23:00,,0822.2,5.00,0.00,22.0,21.0,00.0,30.7,23.9,15.6,0000.0,0007.60,0006.22,0006.14
2022-11-04 16:24:00,,0822.1,5.00,0.00,22.0,21.0,00.0,30.7,23.9,15.5,0000.0,0007.60,0006.22,0006.14
2022-11-04 16:25:00,,0822.1,5.00,0.00,22.0,21.1,00.0,30.7,23.9,15.3,0000.0,0007.59,0006.23,0006.15
2022-11-04 16:26:00,,0822.1,5.01,0.00,22.1,21.1,00.0,30.7,24.0,15.3,0000.0,0007.63,0006.25,0006.17
2022-11-04 16:27:00,,0822.1,4.99,0.00,22.1,21.2,00.0,30.8,24.0,15.3,0000.0,0007.68,0006.29,0006.19
2022-11-04 16:28:00,,0822.1,4.99,0.00,22.1,21.2,00.0,30.8,24.0,15.5,0000.0,0007.68,0006.30,0006.21
2022-11-04 16:29:00,,0822.1,5.02,0.00,22.1,21.2,00.0,30.8,24.0,15.7,0000.0,0008.31,0006.32,0006.22
2022-11-04 16:30:00,,0822.1,5.00,0.00,22.2,21.3,00.0,30.8,24.1,15.6,0000.0,0008.43,0006.33,0006.23
2022-11-04 16:31:00,,0822.1,4.99,0.00,22.2,21.3,00.0,30.8,24.2,15.6,0000.0,0008.43,0006.34,0006.25
2022-11-04 16:32:00,,0822.1,5.02,0.00,22.2,21.3,00.0,30.8,24.2,15.3,0000.0,0008.57,0006.37,0006.27
2022-11-04 16:33:00,,0822.1,5.01,0.00,22.3,21.4,00.0,30.9,24.3,15.2,0000.0,0009.09,0006.37,0006.29
2022-11-04 16:34:00,,0822.1,4.99,0.00,22.3,21.4,00.0,30.9,24.3,15.2,0000.0,0009.11,0006.39,0006.30
2022-11-04 16:35:00,,0822.1,4.99,0.00,22.3,21.4,00.0,30.9,24.3,15.2,0000.0,0009.32,0006.42,0006.33
2022-11-04 16:36:00,,0822.1,5.01,0.00,22.4,21.5,00.0,31.0,24.3,15.4,0000.0,0009.88,0006.45,0006.35
2022-11-04 16:37:00,,0822.0,4.99,0.00,22.4,21.5,00.0,31.0,24.4,15.2,0000.0,0009.89,0006.47,0006.37
2022-11-04 16:38:00,,0822.1,5.00,0.00,22.4,21.5,00.0,31.0,24.4,15.1,0000.0,0009.88,0006.49,0006.40
2022-11-04 16:39:00,,0822.1,5.01,0.00,22.4,21.6,00.0,31.0,24.4,15.2,0000.0,0009.90,0006.51,0006.42
2022-11-04 16:40:00,,0822.1,5.00,0.00,22.5,21.6,00.0,31.0,24.5,15.4,0000.0,0009.41,0006.53,0006.45
2022-11-04 16:41:00,,0822.1,4.99,0.00,22.5,21.6,00.0,31.1,24.5,15.4,0000.0,0009.21,0006.56,0006.48
2022-11-04 16:42:00,,0822.1,5.02,0.00,22.5,21.6,00.0,31.1,24.5,15.4,0000.0,0009.24,0006.58,0006.50
2022-11-04 16:43:00,,0822.1,4.99,0.00,22.6,21.6,00.0,31.1,24.5,15.2,0000.0,0009.55,0006.62,0006.53
2022-11-04 16:44:00,,0822.1,4.98,0.00,22.6,21.6,00.0,31.1,24.5,15.2,0000.0,0009.32,0006.63,0006.55
2022-11-04 16:45:00,,0822.1,5.02,0.00,22.6,21.6,00.0,31.2,24.6,15.0,0000.0,0009.37,0006.66,0006.57
2022-11-04 16:46:00,,0822.1,5.00,0.00,22.6,21.6,00.0,31.2,24.6,14.9,0000.0,0009.21,0006.67,0006.57
2022-11-04 16:47:00,,0822.1,4.99,0.00,22.6,21.6,00.0,31.2,24.6,15.0,0000.0,0008.70,0006.68,0006.58
2022-11-04 16:48:00,,0822.1,5.01,0.00,22.6,21.7,00.0,31.2,24.6,15.0,0000.0,0008.74,0006.71,0006.59
2022-11-04 16:49:00,,0822.1,5.01,0.00,22.7,21.7,00.0,31.3,24.7,15.2,0000.0,0008.74,0006.70,0006.59
2022-11-04 16:50:00,,0822.1,4.98,0.00,22.7,21.7,00.0,31.3,24.7,15.0,0000.0,0008.80,0006.73,0006.59
2022-11-04 16:51:00,,0822.1,5.02,0.00,22.7,21.7,00.0,31.3,24.7,15.1,0000.0,0008.81,0006.74,0006.60
2022-11-04 16:52:00,,0822.1,4.98,0.00,22.7,21.7,00.0,31.3,24.7,14.9,0000.0,0008.81,0006.75,0006.62
2022-11-04 16:53:00,,0822.1,5.02,0.00,22.7,21.7,00.0,31.3,24.7,14.9,0000.0,0008.83,0006.77,0006.64
2022-11-04 16:54:00,,0822.0,4.98,0.00,22.7,21.7,00.0,31.4,24.7,15.1,0000.0,0008.55,0006.77,0006.64
2022-11-04 16:55:00,,0822.0,5.01,0.00,22.7,21.7,00.0,31.4,24.7,15.1,0000.0,0008.15,0006.79,0006.66
2022-11-04 16:56:00,,0822.0,5.01,0.00,22.7,21.7,00.0,31.4,24.7,15.2,0000.0,0008.11,0006.79,0006.66
2022-11-04 16:57:00,,0821.9,4.98,0.00,22.8,21.7,00.0,31.4,24.7,15.3,0000.0,0008.12,0006.81,0006.67
2022-11-04 16:58:00,,0822.1,5.01,0.00,22.8,21.7,00.0,31.4,24.7,15.3,0000.0,0008.44,0006.82,0006.69
2022-11-04 16:59:00,,0822.0,5.00,0.00,22.8,21.7,00.0,31.5,24.7,15.1,0000.0,0008.45,0006.83,0006.72
